Regional Weather Roundup
Issued by NWS Newport/Morehead, NC

Current Version | Previous Version | Text Only | Print | Product List | Glossary Off
Versions: 1 2 3 4 5 6 7 8 9 10 11 12 13 14 15 16 17 18 19 20 21 22 23 24 25 26 27 28 29 30 31 32 33 34 35 36 37 38 39 40 41 42 43 44 45 46 47 48 49 50
000 ASUS42 KMHX 242014 RWRMHX WEATHER ROUNDUP FOR EASTERN NORTH CAROLINA NATIONAL WEATHER SERVICE NEWPORT/MOREHEAD CITY NC 400 PM EDT WED MAY 24 2017 NOTE: "FAIR" INDICATES FEW OR NO CLOUDS BELOW 12,000 FEET WITH NO SIGNIFICANT WEATHER AND/OR OBSTRUCTIONS TO VISIBILITY NCZ015>017-031-032-045>047-102-103-242100- NORTH COAST CITY SKY/WX TMP DP RH WIND PRES REMARKS EDENTON CLOUDY 75 68 78 E8 29.68F ELIZABETH CITY PTSUNNY 70 65 84 NE9 29.69F KITTY HAWK CLOUDY 64 61 91 CALM 29.72R MANTEO CLOUDY 65 61 86 E8 29.73R $$ NCZ045>047-081-094-103-104-242100- CENTRAL COAST CITY SKY/WX TMP DP RH WIND PRES REMARKS FRISCO NOT AVBL $$ NCZ095-097-098-100-101-242100- SOUTHERN COAST CITY SKY/WX TMP DP RH WIND PRES REMARKS BEAUFORT CLOUDY 78 73 84 S12 29.68F CEDAR ISLAND NOT AVBL JACKSONVILLE NOT AVBL PINEY ISLAND CLOUDY N/A N/A N/A S13 29.68F WILMINGTON CLOUDY 80 71 74 S18 29.63F $$ NCZ011>013-027>030-043-044-078>080-089-090>093-098-242100- COASTAL PLAIN CITY SKY/WX TMP DP RH WIND PRES REMARKS AHOSKIE N/A 70 65 85 E3 29.68S CLINTON CLOUDY 78 71 80 S3 29.62F ELIZABETHTOWN CLOUDY 79 71 76 SE8 29.61F GOLDSBORO CLOUDY 78 74 86 S6 29.61F GREENVILLE CLOUDY 79 68 69 S7 29.68F HAZE HAVELOCK CLOUDY 79 69 71 S10 29.68F KENANSVILLE CLOUDY 79 72 78 S3 29.63F KINSTON CLOUDY 79 68 69 SE8 29.64F NEW BERN CLOUDY 79 70 74 S10 29.68S RICHLANDS CLOUDY 78 72 81 SE7 29.65F ROCKY MOUNT CLOUDY 75 68 78 SE3 29.63F WASHINGTON CLOUDY 77 69 76 SE6 29.66F WHITEVILLE CLOUDY 79 71 76 SE14 29.61F $$ AMZ130-135-150-152-154-156-158-170-250-252-270-ANZ085-086-088-633-658-670-242100- MARINE OBSERVATIONS STATION/POSITION TIME TEMP WIND PRES WAVE SWELL AIR SEA DIR/SP/G HT/PER HT/PER (UTC) (F) (DEG/KT/KT) (MB) (FT/S) (FT/S) CHESAPEAKE LIGHT NOT AVBL 64 E VA BEACH 1950 61 65 360/ 8/ 12 1006.8 4/ 8 3/ 8 DUCK 1948 61 65 40/ 10/ 11 1006.1 2 E DUCK 2000 65 N/A 4/ 5 OREGON INLET 1942 65 71 50/ 7/ 9 1006.2 13E OREGON INLT 1948 66 N/A 4/ 8 5/ 8 HATTERAS CG 1948 75 73 170/ 8/ 9 1005.8 DIAMOND BUOY 1950 76 75 220/ 8/ 10 1005.9 4/ 8 3/ 8 CAPE LOOKOUT 2000 77 200/ 10/ 13 1005.0 BEAUFORT LAB 1948 76 73 180/ 8/ 10 1004.3 30 SE NEW RVR IN 1908 77 76 220/ 16/ 23 1005.9 30 SE NEW RVR IN 1943 76 N/A 7/ 8 27 SE WRIGHTSVLE 1908 76 76 200/ 14/ 19 1004.7 5 SE WRIGHTSVLE 1908 76 75 200/ 12/ 17 1005.1 225 S CAPE HAT 1950 78 76 190/ 19/ 23 1009.7 8/ 8 2/24 41 SE CHARLESTON 1950 74 77 230/ 25/ 33 1004.0 7/ 6 2/15 $$

USA.gov is the U.S. government's official web portal to all federal, state and local government web resources and services.